SCP
0 0 0 0 0 0 0 0 0 0 0 0 -0 -0 0 0 -0 -0 0 0 0 -0 -0 -0 -0 -0 -0 -0 -0 -0 -0 -0 -0 -0 -0 -0 -0 -0 -0 -0 0 0 0 0 0 0 0 0 0
0 0 0 0 0 0 0 0 0 0 0 -0 -0 -0 -0 -0 0 0 0 -0 0 -0 -0 -0 -0 -0 -0 -0 -0 -0 -0 -0 -0 -0 -0 -0 -0 0 0 0 0 0 0 0 0 0 0 0 0
0 0 0 0 0 0 0 0 0 -0 -0 -0 -0 -0 0 -0 -0 -0 -0 -0 -0 -0 -0 -0 -0 -0 -0 -0 -0 -0 -0 -0 -0 -0 -0 -0 -0 -0 0 0 0 0 0 0 0 0 0 0 0
0 0 0 0 0 0 0 0 0 0 0 0 -0 -0 0 -0 -0 -0 0 -0 -0 -0 -0 -0 -0 -0 -0 -0 -0 -0 -0 -0 -0 -0 0 0 0 0 0 0 0 0 0 0 0 0 0 0 0
0 0 0 0 0 0 0 0 0 0 0 0 0 0 0 0 0 0 0 -0 -0 -0 -0 -0 -0 0 0 0 0 0 0 0 0 0 0 0 0 0 0 0 0 0 0 0 0 0 0 0 0
0 0 0 0 0 0 0 0 0 0 0 0 0 0 0 0 0 0 0 0 0 0 0 0 0 0 0 0 0 0 0 0 0 0 0 0 0 0 0 0 0 0 0 0 0 0 0 0 0
0 0 0 0 0 0 0 0 0 0 0 0 0 0 0 0 0 1 0 0 0 0 0 0 0 0 0 0 0 0 0 0 0 0 0 0 0 0 0 0 0 0 0 0 0 0 0 0 0
0 0 0 0 0 0 0 0 0 0 0 0 0 0 0 0 0 0 0 1 1 0 0 1 1 1 0 0 0 0 0 0 0 0 0 0 0 0 0 0 0 0 0 0 0 0 0 0 0
0 0 0 0 0 0 0 0 0 0 0 0 0 0 0 0 0 0 0 0 0 0 0 0 0 0 0 1 0 0 0 0 0 0 0 0 0 0 0 0 0 0 0 0 0 0 0 0 0
0 0 0 0 0 0 0 0 0 0 0 0 0 0 0 0 0 0 0 0 0 0 0 0 0 0 0 0 0 0 0 0 1 1 1 1 1 1 0 0 1 1 1 1 1 1 1 0 0
0 0 0 0 0 0 0 0 0 0 0 0 0 0 0 0 0 0 0 0 0 0 0 0 0 0 0 0 0 0 0 0 0 0 1 1 1 1 1 0 0 1 1 1 0 0 0 0 0
0 0 0 0 0 0 0 0 0 0 0 0 0 0 0 0 0 0 0 0 0 0 0 0 0 0 0 0 0 0 0 0 0 0 0 0 0 0 1 1 1 1 1 1 1 1 1 1 0
0 0 0 0 0 0 0 0 0 0 0 0 0 0 0 0 0 0 0 0 0 0 0 0 0 0 0 0 0 0 0 0 0 0 0 0 0 0 0 0 0 1 1 1 1 1 1 1 0
0 0 0 0 0 0 0 0 0 0 0 0 0 0 0 0 0 0 0 0 0 0 0 0 0 0 0 0 0 0 0 0 0 0 0 0 0 0 0 0 0 0 0 0 1 1 1 1 1
0 0 0 0 0 0 0 0 0 0 0 0 0 0 0 0 0 0 0 0 0 0 0 0 0 0 0 0 0 0 0 0 0 0 0 0 0 0 0 0 0 0 0 0 0 0 1 1 1
0 0 0 0 0 0 0 0 0 0 0 0 0 0 0 0 0 0 0 0 0 0 0 0 0 0 0 0 -0 -0 -0 -0 0 0 0 0 0 0 0 0 0 0 0 0 0 0 0 1 1
0 0 0 0 0 0 0 0 0 0 0 0 0 0 0 0 0 0 0 0 0 0 0 0 0 0 0 -0 -0 -0 -0 -0 0 0 0 0 0 0 0 0 0 0 0 0 0 0 0 1 0
0 0 0 0 0 0 0 0 0 0 0 0 0 0 0 0 0 0 0 0 0 0 0 0 0 0 0 -0 -0 -0 -0 -0 -0 0 0 0 0 0 0 0 0 0 0 0 0 0 0 0 0
0 0 0 0 0 0 0 0 0 0 0 0 0 0 0 0 0 0 0 0 0 0 0 0 0 0 0 0 0 -0 -0 -0 -0 0 0 0 0 0 0 0 0 0 0 0 0 0 0 0 0
0 0 0 0 0 0 0 0 0 0 0 0 0 0 0 0 0 0 0 0 0 0 0 0 0 0 0 0 0 0 -0 -0 -0 0 0 0 0 0 0 0 0 0 0 0 0 0 0 0 0
0 0 0 0 0 0 0 0 0 0 0 0 0 0 0 0 0 0 0 0 0 0 0 0 0 0 0 0 0 0 0 0 -0 0 0 0 0 0 0 0 0 0 0 0 0 0 0 0 0
0 0 0 0 0 0 0 0 0 0 0 0 0 0 0 0 0 0 0 0 0 0 0 0 0 0 0 0 0 0 0 0 0 0 0 0 0 0 0 0 0 0 0 0 0 0 0 0 0
0 0 0 0 0 0 0 0 0 0 0 0 0 0 0 0 0 0 0 0 0 0 0 0 0 0 0 0 0 0 0 0 0 0 0 0 0 0 0 0 0 0 0 0 0 0 0 0 0
0 0 0 0 0 0 0 0 0 0 0 0 0 0 0 0 0 0 0 0 0 0 0 0 0 0 0 0 0 0 0 0 0 0 0 0 0 0 0 0 0 0 0 0 0 0 0 0 0
0 0 0 0 0 0 0 0 0 0 0 0 0 0 0 0 0 0 0 0 0 0 0 0 0 0 0 0 0 0 0 0 0 0 0 0 0 0 0 0 0 0 0 0 0 0 0 0 0
0 0 0 0 0 0 0 0 0 0 0 0 0 0 0 0 0 0 0 0 0 0 0 0 0 0 0 0 0 0 0 0 0 0 0 0 0 0 0 0 0 0 0 0 0 0 0 0 0
0 0 0 0 0 0 0 0 0 0 0 0 0 0 0 0 0 0 0 0 0 0 0 0 0 0 0 0 0 0 0 0 0 0 0 0 0 0 0 0 0 0 0 0 0 0 0 0 0
0 0 0 0 0 0 0 0 0 0 0 0 0 -0 -0 -0 -0 0 0 0 0 0 0 0 0 0 0 0 0 0 0 0 0 0 0 0 0 0 0 0 0 0 0 0 0 0 0 0 0
0 0 0 0 0 0 0 0 0 -0 -0 -0 -0 -0 -0 -0 -0 -0 -0 0 0 0 0 0 0 0 0 0 0 0 0 0 0 0 0 0 0 0 0 0 0 0 0 0 0 0 0 0 0
0 0 0 0 0 0 0 0 0 0 0 0 -0 -0 -0 -0 -0 -0 0 0 0 0 0 0 0 0 0 0 0 0 0 0 0 0 0 0 0 0 0 0 0 0 0 0 0 0 0 0 0
Wind_Speed_500mb
14 7 5 2 6 3 5 6 4 13 8 7 22 12 15 13 8 9 7 8 7 30 31 27 22 17 16 19 20 22 22 22 21 19 18 17 17 19 19 18 16 15 16 18 19 18 13 12 12
12 9 8 1 6 9 13 2 13 8 16 28 34 25 17 10 10 7 4 10 16 33 32 28 25 21 16 14 14 15 18 20 20 19 19 18 17 17 19 18 16 14 15 15 16 15 11 8 8
11 13 7 4 5 17 10 7 19 28 30 17 13 17 6 6 11 5 8 13 19 30 30 28 24 22 21 20 17 13 12 14 17 19 21 21 20 20 21 19 15 14 15 15 13 12 10 8 4
13 9 6 7 19 7 2 11 29 28 17 12 30 18 9 8 5 7 19 19 21 28 29 27 24 21 18 16 16 14 12 9 10 13 17 19 21 22 23 21 17 16 16 16 13 11 9 6 5
13 6 5 6 11 2 4 22 20 19 11 21 9 13 9 6 9 20 23 24 24 29 30 26 20 16 13 11 9 9 9 10 9 8 8 11 16 22 24 24 19 17 17 17 17 15 12 10 9
5 2 7 18 12 5 5 28 22 11 14 18 23 18 6 6 10 25 26 25 25 22 24 20 16 12 10 9 8 7 6 6 6 7 6 6 9 14 21 24 22 20 20 20 20 20 20 17 18
5 5 7 9 12 14 10 20 17 20 19 11 22 10 10 15 22 28 29 28 28 27 24 23 18 16 14 11 8 7 6 6 7 7 6 7 10 13 17 21 24 23 21 23 23 23 25 27 25
7 3 11 9 17 17 14 13 18 20 9 27 21 11 14 24 27 27 31 34 30 31 30 28 23 19 15 10 8 11 11 9 8 8 9 10 11 13 18 21 24 27 28 27 27 27 27 30 32
8 5 13 15 18 12 12 11 11 16 24 9 9 17 38 33 30 29 32 34 33 32 28 23 21 16 13 10 13 8 11 10 8 9 11 13 16 18 20 22 24 28 30 32 34 34 33 33 35
6 6 15 8 11 18 19 15 20 15 22 13 32 46 46 40 34 29 32 33 33 32 31 20 15 6 10 5 7 8 8 7 9 11 10 13 17 21 25 28 28 29 30 33 36 38 40 40 40
8 6 6 11 12 19 25 13 5 21 9 25 49 51 55 47 37 30 36 35 38 31 29 24 20 14 5 9 9 8 6 4 7 10 13 17 18 20 24 29 33 35 35 35 35 37 40 43 44
7 7 7 8 15 18 21 20 13 20 6 31 40 54 52 43 34 33 37 35 32 30 25 21 17 11 3 4 8 11 13 14 15 16 17 18 20 25 29 29 31 34 37 40 41 41 40 41 43
7 1 6 2 19 12 18 13 5 17 6 36 50 52 50 42 35 31 32 34 27 26 23 20 12 6 5 7 9 11 14 17 21 25 28 30 30 30 31 33 37 43 39 39 39 43 47 45 43
5 3 4 4 8 3 15 7 6 18 15 46 54 53 51 44 40 38 37 33 34 32 28 20 10 4 1 3 7 9 10 11 13 16 21 27 32 36 38 39 40 40 44 50 49 48 48 46 42
7 9 3 11 12 5 9 12 17 12 31 46 47 53 53 49 45 35 29 34 35 30 23 16 8 7 11 10 13 15 15 15 16 19 22 25 28 31 36 41 43 47 48 47 51 53 49 51 53
7 4 15 10 16 4 19 32 23 28 32 47 51 52 58 59 51 46 43 40 40 34 27 17 13 15 12 16 22 26 25 22 23 25 25 25 27 33 38 41 44 46 48 51 52 50 51 51 45
2 12 12 6 14 6 23 16 30 19 35 45 54 52 59 62 62 56 50 48 43 36 27 19 19 14 10 14 20 24 25 26 29 31 32 35 38 35 35 41 46 48 49 49 51 47 41 47 53
16 13 9 14 13 11 18 25 14 12 38 48 57 53 52 63 71 64 60 54 47 40 31 26 25 14 5 10 18 24 26 28 30 31 34 37 40 44 47 44 39 41 46 49 49 52 53 54 51
8 6 8 5 7 9 21 22 25 25 25 34 39 48 53 65 65 70 65 60 55 48 41 35 29 17 4 6 16 23 30 35 36 38 40 41 43 42 43 47 46 40 43 44 46 49 50 49 46
9 9 11 12 13 12 17 24 21 16 22 37 47 53 61 69 61 71 73 70 66 57 49 43 33 19 8 9 16 23 33 42 44 45 46 48 52 49 44 44 46 46 44 46 44 43 44 40 35
12 16 10 15 5 4 9 27 19 18 28 30 44 52 61 79 79 73 80 79 71 64 55 40 29 20 12 11 17 24 33 43 49 51 53 58 61 59 52 45 46 49 47 46 46 44 43 35 34
13 25 15 11 9 13 4 13 11 13 20 21 44 47 49 58 62 65 81 83 79 69 51 40 31 25 18 15 21 26 36 47 51 52 53 58 63 63 59 53 46 47 47 47 47 45 45 42 37
3 3 13 9 13 6 11 12 8 6 17 26 28 28 31 44 56 68 81 90 82 66 53 40 34 28 22 22 27 33 42 52 56 55 56 61 67 69 60 51 47 46 45 45 48 48 45 41 40
22 15 12 8 3 15 21 20 15 12 10 7 8 23 23 27 42 58 67 77 82 63 51 41 37 32 28 28 31 37 46 54 58 58 62 67 69 67 64 53 47 47 45 45 45 43 46 45 43
10 15 6 9 11 14 4 12 22 12 10 17 27 32 32 35 39 48 60 76 77 64 47 42 40 38 33 32 34 42 51 59 61 62 65 70 72 65 61 57 53 50 50 49 46 46 47 49 47
29 23 11 11 11 5 8 14 5 5 6 13 21 26 17 16 24 44 54 67 71 51 42 42 43 40 37 36 40 48 57 62 64 66 68 73 71 65 61 58 55 52 52 55 52 49 48 47 54
12 18 10 7 3 9 15 17 21 19 15 9 11 8 8 13 24 37 50 55 51 44 45 46 46 43 39 41 48 53 61 64 67 69 71 74 71 65 62 60 58 55 52 55 55 53 52 54 53
12 21 8 1 11 18 14 13 18 12 15 8 9 12 13 20 31 43 50 51 49 48 50 52 50 43 42 47 52 58 64 66 70 73 73 72 68 64 64 61 58 57 57 56 57 56 52 54 56
10 16 5 4 7 17 20 16 13 23 17 18 18 22 28 34 41 47 53 53 54 53 53 52 49 46 47 50 55 62 66 68 72 72 70 65 64 64 64 62 60 59 59 59 59 62 62 61 58
7 21 28 12 31 8 15 32 15 17 18 27 30 36 37 40 43 42 46 53 55 56 55 53 50 50 49 55 59 65 67 70 72 69 64 60 63 61 62 62 61 63 65 61 62 65 67 67 65
Wind_Direction_500mb
228 218 193 148 230 248 224 157 66 123 124 88 123 113 90 46 39 78 9 71 134 168 164 161 154 143 141 155 168 174 171 170 171 174 175 172 167 167 165 156 150 145 142 137 134 131 131 109 86
212 172 156 213 235 211 185 114 133 106 121 116 102 96 67 70 48 64 87 74 135 162 162 161 156 148 136 134 153 174 184 187 189 192 193 193 189 183 180 173 163 159 159 153 146 144 147 133 98
181 175 170 218 191 208 187 116 119 117 124 117 100 80 68 11 39 58 54 90 137 161 163 163 160 156 150 146 143 152 177 195 203 207 207 206 205 199 193 189 179 178 177 172 168 163 165 162 141
171 150 70 232 210 172 177 124 141 132 109 91 122 92 89 25 14 66 110 108 126 157 166 165 165 164 162 156 147 141 142 162 192 202 207 208 209 207 203 200 197 194 195 193 193 197 189 201 196
170 167 176 210 200 167 188 138 144 134 107 118 133 125 101 19 71 121 128 125 131 151 165 167 165 166 166 162 157 154 144 137 148 177 203 215 215 213 209 207 208 206 209 213 214 227 228 237 250
163 178 190 194 186 165 150 155 142 123 129 132 121 116 94 96 122 132 131 131 126 129 148 152 153 156 157 159 161 170 172 165 155 156 179 208 220 225 222 218 217 216 218 223 231 233 248 248 258
195 208 186 197 183 167 158 164 161 139 135 125 134 97 128 116 128 136 144 141 136 131 136 140 144 149 152 161 180 192 196 200 204 206 203 205 215 228 234 238 239 236 232 231 234 240 245 256 259
149 159 158 187 195 177 149 138 139 144 116 134 143 152 158 142 132 144 152 150 148 142 150 147 138 140 137 141 186 209 211 217 229 234 236 236 239 240 243 245 246 247 248 246 243 244 248 253 261
152 186 194 183 181 159 157 147 137 123 135 121 145 146 150 142 140 150 153 153 155 152 147 159 140 140 130 115 85 124 196 210 231 252 260 257 254 251 248 250 253 255 253 251 251 251 253 257 259
195 222 199 192 183 169 163 160 145 147 141 94 112 137 144 143 147 156 156 159 158 149 146 167 143 155 148 112 76 81 125 189 213 229 243 253 257 258 257 257 256 254 253 254 255 254 254 255 261
170 240 187 198 195 170 164 161 135 142 173 173 156 150 147 146 150 158 159 162 163 159 155 152 148 183 128 85 73 65 46 351 306 281 273 267 262 259 261 261 259 259 261 260 257 256 256 257 257
213 227 192 161 168 154 169 152 163 186 144 190 170 162 159 161 163 162 156 154 151 148 149 150 153 159 155 327 317 315 316 309 304 298 297 293 288 284 274 271 270 266 262 264 263 259 258 257 258
211 32 180 246 164 137 151 182 213 201 136 173 168 169 170 171 172 165 167 166 170 171 177 177 176 200 276 303 317 320 312 301 293 291 288 286 284 282 282 281 277 273 271 270 269 270 266 260 258
159 131 108 171 173 137 185 152 184 226 179 164 172 177 180 183 183 178 179 180 178 178 173 173 181 218 112 59 36 9 346 332 318 306 297 289 285 283 281 278 276 276 274 271 267 267 266 266 266
120 158 119 162 177 180 158 230 219 179 189 179 182 186 188 189 193 196 187 190 187 184 183 181 182 137 110 66 38 27 12 4 353 336 319 304 296 290 285 283 278 275 273 274 271 271 271 276 268
123 130 189 165 171 170 195 242 229 209 189 190 190 191 194 198 205 200 197 196 190 192 187 185 161 139 102 51 38 24 9 356 348 342 336 326 311 297 291 287 284 281 276 274 273 275 271 266 278
46 202 203 206 211 135 207 251 240 214 203 202 197 196 199 201 205 208 204 200 198 194 197 186 163 147 84 50 29 17 7 355 344 339 336 333 327 316 298 287 284 282 282 278 274 273 272 268 263
200 196 198 201 174 207 217 236 238 256 213 208 204 201 201 204 212 210 207 200 199 198 194 186 170 161 80 40 15 7 359 349 339 332 328 330 328 321 312 302 292 286 279 278 276 274 271 264 258
129 168 200 207 178 223 232 242 248 222 212 218 219 213 212 213 216 212 207 202 201 202 199 193 191 201 230 348 357 355 353 345 338 331 328 328 328 325 312 301 295 288 284 280 278 279 276 271 268
197 216 225 269 233 218 245 251 252 213 221 219 221 221 220 220 213 216 208 204 206 207 202 201 209 219 254 324 338 345 348 344 336 329 328 329 329 327 317 302 292 287 283 283 281 279 278 276 269
202 213 212 238 143 227 284 266 240 241 236 231 230 230 227 220 216 214 209 208 208 208 208 208 215 227 250 288 322 332 337 337 335 327 324 327 327 326 320 306 294 285 280 278 279 276 274 273 267
234 211 227 207 206 246 299 275 242 238 240 234 240 229 228 223 222 217 213 210 211 210 204 208 218 230 253 285 305 317 326 331 329 321 320 321 321 322 320 311 296 287 280 275 275 272 268 267 263
222 122 204 176 210 255 199 259 242 235 241 242 245 257 242 234 229 226 220 216 213 206 204 211 224 235 259 279 297 315 322 323 322 316 316 317 318 320 319 310 297 284 278 278 276 268 263 259 258
146 104 73 75 161 250 231 231 250 229 222 204 258 282 271 250 240 228 223 212 209 202 203 216 228 240 256 277 298 310 313 316 316 314 314 318 319 320 319 314 303 292 284 278 277 271 259 255 252
200 160 164 211 208 248 148 217 265 255 247 270 297 294 287 269 246 212 200 202 202 200 205 223 234 245 256 277 294 304 308 312 312 313 315 317 319 319 318 312 306 299 292 287 282 275 263 253 251
204 213 198 214 215 233 147 236 225 197 217 266 278 289 290 254 214 202 198 188 193 195 214 230 243 251 262 277 292 299 306 309 310 313 313 314 315 313 312 307 303 299 292 288 284 279 269 256 251
163 210 246 247 86 253 239 249 272 240 233 253 273 268 237 200 186 184 183 180 186 206 222 236 244 251 263 279 288 298 304 306 307 310 309 312 313 310 309 306 303 300 295 290 285 277 271 261 252
217 146 164 164 239 242 225 252 240 228 211 208 210 205 175 166 165 168 175 184 202 216 230 238 245 253 266 278 290 298 302 304 307 307 308 310 310 307 306 304 300 296 292 288 285 278 270 265 257
183 217 215 227 239 247 268 256 205 234 226 200 199 191 175 171 173 180 189 202 213 225 236 243 248 257 268 281 292 297 300 303 306 307 308 309 308 308 306 304 300 296 291 289 282 277 274 265 260
309 260 221 217 223 238 267 264 180 216 200 196 199 196 194 192 196 202 207 215 225 234 241 244 248 258 272 283 292 295 299 304 305 306 306 308 308 309 307 302 297 297 295 292 283 277 272 267 261
Wind_Speed_850mb
14 7 5 2 6 3 5 6 4 13 8 7 22 12 15 13 8 9 7 8 7 30 31 27 22 17 16 19 20 22 22 22 21 19 18 17 17 19 19 18 16 15 16 18 19 18 13 12 12
12 9 8 1 6 9 13 2 13 8 16 28 34 25 17 10 10 7 4 10 16 33 32 28 25 21 16 14 14 15 18 20 20 19 19 18 17 17 19 18 16 14 15 15 16 15 11 8 8
11 13 7 4 5 17 10 7 19 28 30 17 13 17 6 6 11 5 8 13 19 30 30 28 24 22 21 20 17 13 12 14 17 19 21 21 20 20 21 19 15 14 15 15 13 12 10 8 4
13 9 6 7 19 7 2 11 29 28 17 12 30 18 9 8 5 7 19 19 21 28 29 27 24 21 18 16 16 14 12 9 10 13 17 19 21 22 23 21 17 16 16 16 13 11 9 6 5
13 6 5 6 11 2 4 22 20 19 11 21 9 13 9 6 9 20 23 24 24 29 30 26 20 16 13 11 9 9 9 10 9 8 8 11 16 22 24 24 19 17 17 17 17 15 12 10 9
5 2 7 18 12 5 5 28 22 11 14 18 23 18 6 6 10 25 26 25 25 22 24 20 16 12 10 9 8 7 6 6 6 7 6 6 9 14 21 24 22 20 20 20 20 20 20 17 18
5 5 7 9 12 14 10 20 17 20 19 11 22 10 10 15 22 28 29 28 28 27 24 23 18 16 14 11 8 7 6 6 7 7 6 7 10 13 17 21 24 23 21 23 23 23 25 27 25
7 3 11 9 17 17 14 13 18 20 9 27 21 11 14 24 27 27 31 34 30 31 30 28 23 19 15 10 8 11 11 9 8 8 9 10 11 13 18 21 24 27 28 27 27 27 27 30 32
8 5 13 15 18 12 12 11 11 16 24 9 9 17 38 33 30 29 32 34 33 32 28 23 21 16 13 10 13 8 11 10 8 9 11 13 16 18 20 22 24 28 30 32 34 34 33 33 35
6 6 15 8 11 18 19 15 20 15 22 13 32 46 46 40 34 29 32 33 33 32 31 20 15 6 10 5 7 8 8 7 9 11 10 13 17 21 25 28 28 29 30 33 36 38 40 40 40
8 6 6 11 12 19 25 13 5 21 9 25 49 51 55 47 37 30 36 35 38 31 29 24 20 14 5 9 9 8 6 4 7 10 13 17 18 20 24 29 33 35 35 35 35 37 40 43 44
7 7 7 8 15 18 21 20 13 20 6 31 40 54 52 43 34 33 37 35 32 30 25 21 17 11 3 4 8 11 13 14 15 16 17 18 20 25 29 29 31 34 37 40 41 41 40 41 43
7 1 6 2 19 12 18 13 5 17 6 36 50 52 50 42 35 31 32 34 27 26 23 20 12 6 5 7 9 11 14 17 21 25 28 30 30 30 31 33 37 43 39 39 39 43 47 45 43
5 3 4 4 8 3 15 7 6 18 15 46 54 53 51 44 40 38 37 33 34 32 28 20 10 4 1 3 7 9 10 11 13 16 21 27 32 36 38 39 40 40 44 50 49 48 48 46 42
7 9 3 11 12 5 9 12 17 12 31 46 47 53 53 49 45 35 29 34 35 30 23 16 8 7 11 10 13 15 15 15 16 19 22 25 28 31 36 41 43 47 48 47 51 53 49 51 53
7 4 15 10 16 4 19 32 23 28 32 47 51 52 58 59 51 46 43 40 40 34 27 17 13 15 12 16 22 26 25 22 23 25 25 25 27 33 38 41 44 46 48 51 52 50 51 51 45
2 12 12 6 14 6 23 16 30 19 35 45 54 52 59 62 62 56 50 48 43 36 27 19 19 14 10 14 20 24 25 26 29 31 32 35 38 35 35 41 46 48 49 49 51 47 41 47 53
16 13 9 14 13 11 18 25 14 12 38 48 57 53 52 63 71 64 60 54 47 40 31 26 25 14 5 10 18 24 26 28 30 31 34 37 40 44 47 44 39 41 46 49 49 52 53 54 51
8 6 8 5 7 9 21 22 25 25 25 34 39 48 53 65 65 70 65 60 55 48 41 35 29 17 4 6 16 23 30 35 36 38 40 41 43 42 43 47 46 40 43 44 46 49 50 49 46
9 9 11 12 13 12 17 24 21 16 22 37 47 53 61 69 61 71 73 70 66 57 49 43 33 19 8 9 16 23 33 42 44 45 46 48 52 49 44 44 46 46 44 46 44 43 44 40 35
12 16 10 15 5 4 9 27 19 18 28 30 44 52 61 79 79 73 80 79 71 64 55 40 29 20 12 11 17 24 33 43 49 51 53 58 61 59 52 45 46 49 47 46 46 44 43 35 34
13 25 15 11 9 13 4 13 11 13 20 21 44 47 49 58 62 65 81 83 79 69 51 40 31 25 18 15 21 26 36 47 51 52 53 58 63 63 59 53 46 47 47 47 47 45 45 42 37
3 3 13 9 13 6 11 12 8 6 17 26 28 28 31 44 56 68 81 90 82 66 53 40 34 28 22 22 27 33 42 52 56 55 56 61 67 69 60 51 47 46 45 45 48 48 45 41 40
22 15 12 8 3 15 21 20 15 12 10 7 8 23 23 27 42 58 67 77 82 63 51 41 37 32 28 28 31 37 46 54 58 58 62 67 69 67 64 53 47 47 45 45 45 43 46 45 43
10 15 6 9 11 14 4 12 22 12 10 17 27 32 32 35 39 48 60 76 77 64 47 42 40 38 33 32 34 42 51 59 61 62 65 70 72 65 61 57 53 50 50 49 46 46 47 49 47
29 23 11 11 11 5 8 14 5 5 6 13 21 26 17 16 24 44 54 67 71 51 42 42 43 40 37 36 40 48 57 62 64 66 68 73 71 65 61 58 55 52 52 55 52 49 48 47 54
12 18 10 7 3 9 15 17 21 19 15 9 11 8 8 13 24 37 50 55 51 44 45 46 46 43 39 41 48 53 61 64 67 69 71 74 71 65 62 60 58 55 52 55 55 53 52 54 53
12 21 8 1 11 18 14 13 18 12 15 8 9 12 13 20 31 43 50 51 49 48 50 52 50 43 42 47 52 58 64 66 70 73 73 72 68 64 64 61 58 57 57 56 57 56 52 54 56
10 16 5 4 7 17 20 16 13 23 17 18 18 22 28 34 41 47 53 53 54 53 53 52 49 46 47 50 55 62 66 68 72 72 70 65 64 64 64 62 60 59 59 59 59 62 62 61 58
7 21 28 12 31 8 15 32 15 17 18 27 30 36 37 40 43 42 46 53 55 56 55 53 50 50 49 55 59 65 67 70 72 69 64 60 63 61 62 62 61 63 65 61 62 65 67 67 65
Wind_Direction_850mb
228 218 193 148 230 248 224 157 66 123 124 88 123 113 90 46 39 78 9 71 134 168 164 161 154 143 141 155 168 174 171 170 171 174 175 172 167 167 165 156 150 145 142 137 134 131 131 109 86
212 172 156 213 235 211 185 114 133 106 121 116 102 96 67 70 48 64 87 74 135 162 162 161 156 148 136 134 153 174 184 187 189 192 193 193 189 183 180 173 163 159 159 153 146 144 147 133 98
181 175 170 218 191 208 187 116 119 117 124 117 100 80 68 11 39 58 54 90 137 161 163 163 160 156 150 146 143 152 177 195 203 207 207 206 205 199 193 189 179 178 177 172 168 163 165 162 141
171 150 70 232 210 172 177 124 141 132 109 91 122 92 89 25 14 66 110 108 126 157 166 165 165 164 162 156 147 141 142 162 192 202 207 208 209 207 203 200 197 194 195 193 193 197 189 201 196
170 167 176 210 200 167 188 138 144 134 107 118 133 125 101 19 71 121 128 125 131 151 165 167 165 166 166 162 157 154 144 137 148 177 203 215 215 213 209 207 208 206 209 213 214 227 228 237 250
163 178 190 194 186 165 150 155 142 123 129 132 121 116 94 96 122 132 131 131 126 129 148 152 153 156 157 159 161 170 172 165 155 156 179 208 220 225 222 218 217 216 218 223 231 233 248 248 258
195 208 186 197 183 167 158 164 161 139 135 125 134 97 128 116 128 136 144 141 136 131 136 140 144 149 152 161 180 192 196 200 204 206 203 205 215 228 234 238 239 236 232 231 234 240 245 256 259
149 159 158 187 195 177 149 138 139 144 116 134 143 152 158 142 132 144 152 150 148 142 150 147 138 140 137 141 186 209 211 217 229 234 236 236 239 240 243 245 246 247 248 246 243 244 248 253 261
152 186 194 183 181 159 157 147 137 123 135 121 145 146 150 142 140 150 153 153 155 152 147 159 140 140 130 115 85 124 196 210 231 252 260 257 254 251 248 250 253 255 253 251 251 251 253 257 259
195 222 199 192 183 169 163 160 145 147 141 94 112 137 144 143 147 156 156 159 158 149 146 167 143 155 148 112 76 81 125 189 213 229 243 253 257 258 257 257 256 254 253 254 255 254 254 255 261
170 240 187 198 195 170 164 161 135 142 173 173 156 150 147 146 150 158 159 162 163 159 155 152 148 183 128 85 73 65 46 351 306 281 273 267 262 259 261 261 259 259 261 260 257 256 256 257 257
213 227 192 161 168 154 169 152 163 186 144 190 170 162 159 161 163 162 156 154 151 148 149 150 153 159 155 327 317 315 316 309 304 298 297 293 288 284 274 271 270 266 262 264 263 259 258 257 258
211 32 180 246 164 137 151 182 213 201 136 173 168 169 170 171 172 165 167 166 170 171 177 177 176 200 276 303 317 320 312 301 293 291 288 286 284 282 282 281 277 273 271 270 269 270 266 260 258
159 131 108 171 173 137 185 152 184 226 179 164 172 177 180 183 183 178 179 180 178 178 173 173 181 218 112 59 36 9 346 332 318 306 297 289 285 283 281 278 276 276 274 271 267 267 266 266 266
120 158 119 162 177 180 158 230 219 179 189 179 182 186 188 189 193 196 187 190 187 184 183 181 182 137 110 66 38 27 12 4 353 336 319 304 296 290 285 283 278 275 273 274 271 271 271 276 268
123 130 189 165 171 170 195 242 229 209 189 190 190 191 194 198 205 200 197 196 190 192 187 185 161 139 102 51 38 24 9 356 348 342 336 326 311 297 291 287 284 281 276 274 273 275 271 266 278
46 202 203 206 211 135 207 251 240 214 203 202 197 196 199 201 205 208 204 200 198 194 197 186 163 147 84 50 29 17 7 355 344 339 336 333 327 316 298 287 284 282 282 278 274 273 272 268 263
200 196 198 201 174 207 217 236 238 256 213 208 204 201 201 204 212 210 207 200 199 198 194 186 170 161 80 40 15 7 359 349 339 332 328 330 328 321 312 302 292 286 279 278 276 274 271 264 258
129 168 200 207 178 223 232 242 248 222 212 218 219 213 212 213 216 212 207 202 201 202 199 193 191 201 230 348 357 355 353 345 338 331 328 328 328 325 312 301 295 288 284 280 278 279 276 271 268
197 216 225 269 233 218 245 251 252 213 221 219 221 221 220 220 213 216 208 204 206 207 202 201 209 219 254 324 338 345 348 344 336 329 328 329 329 327 317 302 292 287 283 283 281 279 278 276 269
202 213 212 238 143 227 284 266 240 241 236 231 230 230 227 220 216 214 209 208 208 208 208 208 215 227 250 288 322 332 337 337 335 327 324 327 327 326 320 306 294 285 280 278 279 276 274 273 267
234 211 227 207 206 246 299 275 242 238 240 234 240 229 228 223 222 217 213 210 211 210 204 208 218 230 253 285 305 317 326 331 329 321 320 321 321 322 320 311 296 287 280 275 275 272 268 267 263
222 122 204 176 210 255 199 259 242 235 241 242 245 257 242 234 229 226 220 216 213 206 204 211 224 235 259 279 297 315 322 323 322 316 316 317 318 320 319 310 297 284 278 278 276 268 263 259 258
146 104 73 75 161 250 231 231 250 229 222 204 258 282 271 250 240 228 223 212 209 202 203 216 228 240 256 277 298 310 313 316 316 314 314 318 319 320 319 314 303 292 284 278 277 271 259 255 252
200 160 164 211 208 248 148 217 265 255 247 270 297 294 287 269 246 212 200 202 202 200 205 223 234 245 256 277 294 304 308 312 312 313 315 317 319 319 318 312 306 299 292 287 282 275 263 253 251
204 213 198 214 215 233 147 236 225 197 217 266 278 289 290 254 214 202 198 188 193 195 214 230 243 251 262 277 292 299 306 309 310 313 313 314 315 313 312 307 303 299 292 288 284 279 269 256 251
163 210 246 247 86 253 239 249 272 240 233 253 273 268 237 200 186 184 183 180 186 206 222 236 244 251 263 279 288 298 304 306 307 310 309 312 313 310 309 306 303 300 295 290 285 277 271 261 252
217 146 164 164 239 242 225 252 240 228 211 208 210 205 175 166 165 168 175 184 202 216 230 238 245 253 266 278 290 298 302 304 307 307 308 310 310 307 306 304 300 296 292 288 285 278 270 265 257
183 217 215 227 239 247 268 256 205 234 226 200 199 191 175 171 173 180 189 202 213 225 236 243 248 257 268 281 292 297 300 303 306 307 308 309 308 308 306 304 300 296 291 289 282 277 274 265 260
309 260 221 217 223 238 267 264 180 216 200 196 199 196 194 192 196 202 207 215 225 234 241 244 248 258 272 283 292 295 299 304 305 306 306 308 308 309 307 302 297 297 295 292 283 277 272 267 261